STARLINK-11112, 60115

Orbit data source: Space-Track

STARLINK-11112, 60115 is a payload satellite owned by SpaceX/Seattle (US) in LEO that was launched on Mon, 24 Jun 2024 UTC via an FALCON 9 launch vehicle from the Air Force Western Test Range (AFWTR). Payload-class satellites include a variety of spacecraft equipped with specific instruments for various scientific and technological missions. These include communications satellites like Starlink; space stations such as the ISS; scientific satellites like the Hubble; Earth observation satellites from companies like Planet Labs, Umbra, and HawkEye 360; GPS; miniature CubeSats for education and research; and military/defense satellites.

Loading next visibility...
Identifier
60115, 2024-118C
Orbit
LEO
Country
Flag of USUS
Related business
Manufacturer
SpaceX/Seattle
Mission
Operational Commercial Communications
Bus & Motor
STARLINK V2MD, Unknown motor
Mass
960 kg wet, ~910 kg dry
Launch date (UTC)
2024-06-24 (1 year ago)
Launch vehicle
FALCON 9
Launch site
Air Force Western Test Range (AFWTR)
Object type
Payload
Rocket body
Debris
Shape & HBR
Box + 2 Pan, 14.5 m
Radar Cross Section
36.964 m², Large (>1 m²)

Expand to show TLE details & history
Last TLE update: 11 hours ago

TLE from 11 hours ago
0 STARLINK-11112
1 60115U 24118C   25259.57363692 -.00000715  00000-0 -10479-5 0  9994
2 60115  53.1595 359.7971 0001132  86.1493 273.9654 15.69686015 70642
Epoch: 2025-09-16T13:46Z
TLE epoch observation values (Epoch: 2025-09-16T13:46:02.229Z)
Latitude
-0.00007°
Longitude
157.52577°
Altitude
360.658 km
Speed
7.694 km/s
True Right ascension
23h 59m 11s
True Declination
0° 00' 00"
Sunlit
Object was in full shadow at epoch
Visualization orbit readout
Latitude
Unknown
Longitude
Unknown
Altitude
Unknown
Speed
Unknown
Apparent Right ascension
Unknown
Apparent Declination
Unknown
Sunlit
N/A
Visualization observer readout
Local Sidereal Time
17:56:20
Azimuth
Unknown
Elevation
Unknown
Doppler factor
Unknown
Orbital elements
Apogee altitude
360.819 km
Perigee altitude
359.293 km
Semi-major axis
6,738.193 km
Eccentricity
0.00011
Inclination
53.1595°
RAAN
359.7971°
Arg. of periapsis
86.1493°
True anomaly
273.95246°
Mean anomaly
273.9654°
Eccentric anomaly
273.95893°
Mean motion
3.92399 °/min
Orbital period
91.74 mins
BSTAR
-0.0000010479
Loading maneuver chart data...
Computing Atmospheric mass density...
Loading historical data...
Loading historical data...
Loading historical data...
Loading historical data...
Loading historical data...
Loading historical data...
Loading historical data...

Documentation

Showing up to 5 results
|